Location: Ferchesar
(52.6477°N, 12.4298°E)
Time: 15:52:00
(UTC+01:00)

Vanguard 1 - Pass Details

Date: 08 December 2021
Orbit: 652 x 3830 km, 34.2° (Epoch: 22 January)

Event Time Altitude Azimuth Distance (km) Brightness Sun altitude
Rises 02:55:00 0° 265° (W) 7,768 - -45.6°
Reaches altitude 10° 03:00:38 10° 259° (W) 6,887 - -44.9°
Maximum altitude 03:20:55 40° 200° (SSW) 4,545 - -42.0°
Exits shadow 03:22:10 40° 194° (SSW) 4,502 13.0 -41.8°
Drops below altitude 10° 03:36:48 10° 139° (SE) 5,458 14.1 -39.7°
Sets 03:40:39 0° 132° (SE) 6,088 14.5 -39.1°
